SCP
0 0 0 0 0 0 0 0 0 0 0 0 0 0 0 0 0 0 0 0 0 0
0 0 0 0 0 0 0 0 0 0 0 0 0 0 0 0 0 0 0 0 0 0
0 0 0 0 0 0 0 0 0 0 0 0 0 0 0 0 0 0 0 0 0 0
0 0 0 0 0 0 0 0 0 0 0 0 0 0 0 0 0 0 0 0 0 0
0 0 0 0 0 0 0 0 0 0 0 0 0 0 0 0 0 0 0 0 0 0
0 0 0 0 0 0 0 0 0 0 0 0 0 0 0 0 0 0 0 0 0 0
0 0 0 0 0 0 0 0 0 0 0 0 0 0 0 0 0 0 0 0 0 0
0 0 0 0 0 0 0 0 0 0 0 0 0 0 0 0 0 0 0 0 0 0
0 0 0 0 0 0 0 0 0 0 0 0 0 0 0 0 0 0 0 0 0 0
0 0 0 0 0 0 0 0 0 0 0 0 0 0 0 0 0 0 0 0 0 0
0 0 0 0 0 0 0 0 0 0 0 0 0 0 0 0 0 0 0 0 0 0
0 0 0 0 0 0 0 0 0 0 0 0 0 0 0 0 0 0 0 0 0 0
0 0 0 0 0 0 0 0 0 0 0 0 0 0 0 0 0 0 0 0 0 0
0 0 0 0 0 0 0 0 0 0 0 0 0 0 0 0 0 0 0 0 0 0
Wind_Speed_500mb
75 74 67 60 51 57 51 49 45 45 43 54 45 43 39 42 35 38 40 40 40 41
62 66 65 54 52 54 53 46 44 47 39 37 43 42 29 32 34 37 41 46 41 33
44 48 50 44 49 52 47 41 40 39 40 31 35 34 31 35 37 31 25 22 21 20
31 32 37 42 42 43 35 38 37 35 36 34 31 31 27 21 16 14 14 14 15 17
27 30 34 38 39 32 33 35 33 30 29 27 21 16 12 9 7 7 11 14 16 18
29 32 32 31 30 32 32 30 29 26 22 17 14 11 8 6 6 7 11 14 17 19
31 29 30 32 32 30 29 27 26 24 21 19 14 10 6 6 7 9 13 15 18 21
35 35 36 35 34 33 31 30 28 25 21 15 10 7 4 2 7 10 13 17 19 22
38 36 39 38 37 37 36 33 29 24 18 14 10 5 3 6 8 15 16 16 20 25
41 41 42 40 40 39 37 33 29 22 15 11 8 5 4 17 15 13 14 17 20 24
47 46 47 46 46 42 37 32 24 21 17 13 6 10 14 14 13 13 15 16 19 27
49 51 52 50 46 41 36 32 28 21 16 6 2 8 13 13 12 11 10 16 22 29
53 52 50 47 45 41 38 30 28 15 8 4 12 16 16 13 10 6 11 19 26 34
54 53 50 48 46 43 37 31 16 12 11 16 21 18 14 11 8 9 16 23 30 37
Wind_Direction_500mb
252 252 249 247 247 252 255 261 262 265 258 258 273 260 271 271 260 276 280 283 282 283
247 247 247 241 242 247 250 254 258 257 246 268 265 268 255 275 279 281 282 282 285 289
239 234 237 235 235 243 240 246 242 255 260 244 259 264 274 276 276 279 281 291 300 305
226 221 214 224 231 240 244 242 239 237 251 253 259 262 256 255 264 277 288 294 303 311
214 213 210 214 222 225 224 235 242 241 244 248 240 237 238 242 252 270 291 301 309 317
203 205 211 219 218 216 221 221 225 224 220 211 204 201 206 224 258 287 300 310 313 318
204 203 204 204 204 206 207 211 203 192 188 185 184 190 213 261 294 314 313 313 317 322
211 206 205 206 202 200 194 188 184 182 178 179 187 206 226 284 307 308 324 319 325 328
214 213 209 202 193 188 183 180 180 177 177 177 177 176 276 320 332 317 304 321 328 333
211 207 201 195 189 186 182 181 181 175 168 162 171 144 352 312 294 299 318 329 336 343
207 203 197 192 189 185 184 180 177 169 164 162 153 332 295 272 292 311 326 339 348 348
208 202 198 192 188 184 184 178 173 173 167 255 260 264 243 269 293 310 334 345 345 341
205 202 197 193 188 184 180 182 173 189 202 227 263 244 247 262 272 295 335 342 343 346
201 199 197 193 189 183 184 179 186 196 237 236 244 246 252 249 259 315 335 343 345 347
Wind_Speed_850mb
75 74 67 60 51 57 51 49 45 45 43 54 45 43 39 42 35 38 40 40 40 41
62 66 65 54 52 54 53 46 44 47 39 37 43 42 29 32 34 37 41 46 41 33
44 48 50 44 49 52 47 41 40 39 40 31 35 34 31 35 37 31 25 22 21 20
31 32 37 42 42 43 35 38 37 35 36 34 31 31 27 21 16 14 14 14 15 17
27 30 34 38 39 32 33 35 33 30 29 27 21 16 12 9 7 7 11 14 16 18
29 32 32 31 30 32 32 30 29 26 22 17 14 11 8 6 6 7 11 14 17 19
31 29 30 32 32 30 29 27 26 24 21 19 14 10 6 6 7 9 13 15 18 21
35 35 36 35 34 33 31 30 28 25 21 15 10 7 4 2 7 10 13 17 19 22
38 36 39 38 37 37 36 33 29 24 18 14 10 5 3 6 8 15 16 16 20 25
41 41 42 40 40 39 37 33 29 22 15 11 8 5 4 17 15 13 14 17 20 24
47 46 47 46 46 42 37 32 24 21 17 13 6 10 14 14 13 13 15 16 19 27
49 51 52 50 46 41 36 32 28 21 16 6 2 8 13 13 12 11 10 16 22 29
53 52 50 47 45 41 38 30 28 15 8 4 12 16 16 13 10 6 11 19 26 34
54 53 50 48 46 43 37 31 16 12 11 16 21 18 14 11 8 9 16 23 30 37
Wind_Direction_850mb
252 252 249 247 247 252 255 261 262 265 258 258 273 260 271 271 260 276 280 283 282 283
247 247 247 241 242 247 250 254 258 257 246 268 265 268 255 275 279 281 282 282 285 289
239 234 237 235 235 243 240 246 242 255 260 244 259 264 274 276 276 279 281 291 300 305
226 221 214 224 231 240 244 242 239 237 251 253 259 262 256 255 264 277 288 294 303 311
214 213 210 214 222 225 224 235 242 241 244 248 240 237 238 242 252 270 291 301 309 317
203 205 211 219 218 216 221 221 225 224 220 211 204 201 206 224 258 287 300 310 313 318
204 203 204 204 204 206 207 211 203 192 188 185 184 190 213 261 294 314 313 313 317 322
211 206 205 206 202 200 194 188 184 182 178 179 187 206 226 284 307 308 324 319 325 328
214 213 209 202 193 188 183 180 180 177 177 177 177 176 276 320 332 317 304 321 328 333
211 207 201 195 189 186 182 181 181 175 168 162 171 144 352 312 294 299 318 329 336 343
207 203 197 192 189 185 184 180 177 169 164 162 153 332 295 272 292 311 326 339 348 348
208 202 198 192 188 184 184 178 173 173 167 255 260 264 243 269 293 310 334 345 345 341
205 202 197 193 188 184 180 182 173 189 202 227 263 244 247 262 272 295 335 342 343 346
201 199 197 193 189 183 184 179 186 196 237 236 244 246 252 249 259 315 335 343 345 347